Location: Breux
(46.3269°N, 3.2993°E)
Time: 17:45:22
(UTC+00:00)

Terra - Visible Passes

Search period start: 08 August 2020 00:00
Search period end: 18 August 2020 00:00
Orbit: 701 x 703 km, 98.2° (Epoch: 08 August)

Date Brightness Start Highest point End Pass type
(mag) Time Alt. Az. Time Alt. Az. Time Alt. Az.
08 Aug 3.5 20:21:08 12° E 20:23:47 19° ENE 20:27:03 10° NNE visible
08 Aug 2.1 22:00:02 48° SSW 22:01:04 61° WSW 22:05:49 10° NNW visible
09 Aug 2.4 21:04:29 30° ESE 21:06:10 42° ENE 21:10:40 10° N visible
09 Aug 3.4 22:43:23 24° WSW 22:44:04 24° W 22:47:58 10° NW visible
10 Aug 3.8 20:09:05 10° E 20:11:43 15° ENE 20:14:21 10° NNE visible
10 Aug 1.8 21:47:50 55° S 21:48:50 80° WSW 21:53:38 10° NNW visible
11 Aug 2.8 20:52:17 25° ESE 20:54:02 33° ENE 20:58:17 10° N visible
11 Aug 3.0 22:31:11 30° WSW 22:31:45 31° W 22:36:00 10° NNW visible
12 Aug 4.0 19:57:59 10° ENE 19:59:40 12° NE 20:01:21 10° NE visible
12 Aug 1.7 21:35:38 56° SSE 21:36:37 80° ENE 21:41:24 10° NNW visible
12 Aug 4.2 23:14:32 13° W 23:14:58 13° W 23:17:03 10° WNW visible
13 Aug 3.1 20:40:06 21° E 20:41:55 26° ENE 20:45:50 10° N visible
13 Aug 2.6 22:18:59 39° WSW 22:19:28 41° W 22:23:59 10° NNW visible
14 Aug 1.9 21:23:27 50° ESE 21:24:25 62° ENE 21:29:08 10° N visible
14 Aug 3.9 23:02:21 17° W 23:02:35 17° W 23:05:37 10° NW visible
15 Aug 3.4 20:27:55 17° E 20:29:48 21° ENE 20:33:19 10° NNE visible
15 Aug 2.2 22:06:48 52° WSW 22:07:11 53° W 22:11:52 10° NNW visible
16 Aug 2.2 21:11:16 41° ESE 21:12:15 47° ENE 21:16:49 10° N visible
16 Aug 3.6 22:50:10 22° W 22:50:13 22° W 22:53:53 10° NW visible
17 Aug 3.7 20:15:44 13° E 20:17:44 17° ENE 20:20:42 10° NNE visible
17 Aug 1.8 21:54:37 67° SW 21:54:56 70° WSW 21:59:42 10° NNW visible
